User: anonymous   Login
Location: Bats
(43.6587°N, 0.4584°W)
Time: 00:24:40
(UTC+00:00)
Language:

Cosmos 2251 Rocket - Orbit

View from above orbital plane
View from above orbital plane
View from above satellite
View from above satellite

Ground track
Ground track

The orbit is defined by the following mean orbital elements,

1 22676U          26074.47495122 +.00000000 +00000-0 +60972-4 0 00007
2 22676  74.0395  98.3409 0017078  61.7574 298.5300 14.35265026    00
Epoch (UTC): 15 March 2026 11:23:55
Eccentricity: 0.0017078
inclination: 74.0395°
perigee height: 762 km
apogee height: 786 km
right ascension of ascending node: 98.3409°
argument of perigee: 61.7574°
revolutions per day: 14.35265026
mean anomaly at epoch: 298.5300°

The dashed part of the orbit path shows where the satellite is in the earth's shadow,  

DLR